RH
83 83 83 82 81 80 80 81 82 83 83 83 82 81 81 80 79 79 78 79 79 79 78 78 79 79 79 78 76 74 72 67 60 51 42 28 18 12 7 5 4 3 2 2 10 25 47 52 50 48 49 52 53 55 57 62 65 68 70 74 76 77 81 85 86 85 83 82 82 82 83 84 84 85 84 84 84 84 86 86 85 84 83 83 83 83 83 83 82 82 82 82 82 82 82 82 83 84 85 84 83 83 83
84 84 83 82 80 79 80 81 82 82 82 82 81 81 80 79 78 78 78 78 79 78 77 76 77 78 79 78 77 76 74 71 64 56 47 32 18 8 2 2 1 1 1 1 7 20 40 48 49 48 48 51 53 56 56 60 63 66 71 75 77 79 81 84 85 84 83 83 82 82 81 82 83 84 86 86 85 86 86 86 86 86 84 83 83 83 83 83 83 83 83 82 82 82 82 82 83 84 84 84 83 83 83
85 85 84 82 80 79 79 81 82 82 81 81 81 80 79 78 77 77 77 78 78 78 76 75 75 76 77 78 78 78 76 73 68 62 53 40 24 10 2 1 2 2 1 1 4 13 28 40 45 47 48 49 51 54 55 57 60 64 68 74 78 80 81 84 84 84 84 84 83 83 81 81 82 83 85 86 86 86 86 86 86 85 85 84 84 84 84 84 83 83 83 83 83 83 82 82 83 83 83 83 83 83 83
85 85 84 82 80 79 79 80 81 81 80 80 79 79 79 77 76 76 76 77 77 77 76 75 75 74 74 77 78 79 78 75 72 67 61 50 33 16 4 2 1 2 2 1 3 10 23 30 38 43 46 47 47 48 50 52 56 60 65 73 78 81 84 85 85 85 85 85 85 83 82 81 81 81 83 85 87 87 86 85 85 85 85 84 84 84 84 84 84 83 83 83 83 83 82 82 82 83 83 83 83 83 83
87 86 84 82 80 79 78 80 80 80 79 79 79 78 78 77 76 75 75 76 76 76 76 75 73 72 70 72 74 77 78 77 74 71 66 58 43 25 9 3 1 2 2 2 3 7 17 25 32 39 42 44 45 45 45 47 50 55 61 71 77 82 87 85 85 86 86 86 86 85 83 82 81 81 81 83 85 86 85 85 85 85 84 84 83 83 84 84 85 84 84 83 83 83 83 82 82 82 83 83 83 83 84
87 86 85 83 81 79 79 80 80 80 79 78 77 77 77 76 75 74 73 74 74 74 74 73 72 69 66 65 67 71 75 76 75 72 69 62 50 36 17 5 1 1 2 2 2 4 11 22 27 31 36 40 43 43 43 44 48 53 59 68 77 83 85 84 84 85 87 86 86 86 85 83 82 81 81 82 84 85 85 84 84 85 86 85 84 83 82 83 84 85 85 84 84 83 83 83 82 82 82 83 83 83 83
88 86 85 83 81 81 81 81 81 81 79 78 78 77 76 76 75 74 73 73 72 71 72 70 68 66 62 61 61 63 68 71 72 71 69 62 54 43 27 12 4 1 2 2 2 2 4 10 15 20 26 33 38 42 42 43 46 51 57 67 75 82 85 84 82 83 85 86 86 86 87 85 83 82 82 82 83 84 86 84 84 84 85 85 85 85 83 82 83 84 84 84 84 83 83 83 82 82 83 83 83 83 83
88 86 84 83 82 82 82 83 83 82 80 79 78 77 76 75 75 74 73 72 70 69 67 65 64 62 59 57 56 56 58 62 66 67 66 60 54 46 35 21 9 2 1 2 2 2 1 2 6 12 17 22 30 38 39 41 44 49 55 64 72 79 84 85 83 81 83 85 86 86 87 86 84 83 82 82 83 84 84 85 84 83 83 84 85 85 85 83 82 82 83 84 84 84 83 83 83 82 83 83 83 83 82
88 87 85 83 81 80 83 83 83 83 82 80 80 79 78 77 75 74 72 71 69 67 65 63 60 58 54 52 48 43 41 48 53 56 57 55 51 44 34 25 15 6 1 2 2 2 2 2 4 7 10 14 24 32 34 39 42 46 52 59 66 73 81 85 85 83 81 83 84 85 86 86 86 85 84 83 83 84 83 84 84 83 83 83 83 84 84 83 82 82 82 83 84 84 83 83 83 83 83 83 83 83 83
88 86 84 83 82 81 83 83 83 83 83 81 81 80 80 78 76 75 73 72 70 67 65 62 59 55 50 49 44 39 34 33 36 40 44 47 44 37 29 22 15 9 3 2 2 2 2 2 4 6 8 13 19 23 25 34 39 43 48 53 56 62 73 80 84 85 83 83 82 82 83 84 85 85 86 85 84 84 84 83 83 82 82 82 82 83 84 83 83 83 82 83 83 83 83 83 83 83 83 83 83 83 83
88 86 84 83 82 82 84 81 81 82 83 83 82 81 81 80 78 77 75 73 72 70 68 65 61 57 52 48 45 40 33 29 28 29 32 36 34 29 22 15 11 8 5 3 2 2 2 2 3 5 7 8 10 13 17 24 30 36 42 45 45 48 63 72 79 83 84 83 82 82 81 81 82 83 84 85 85 85 84 83 82 82 82 81 82 82 83 83 83 83 83 83 84 84 83 84 83 83 83 82 82 82 83
87 85 83 83 81 81 84 83 82 82 81 83 83 82 83 82 80 79 77 76 74 72 71 69 66 62 57 53 50 46 41 35 30 26 26 26 25 22 17 11 7 5 4 3 2 1 2 2 2 3 3 3 3 5 7 13 19 26 34 34 33 36 50 63 72 78 82 83 84 84 83 81 81 80 79 81 83 84 85 84 83 82 82 82 82 82 82 82 83 83 82 82 83 83 83 84 84 84 83 82 82 82 82
87 85 82 81 80 80 81 81 81 81 80 81 82 83 84 83 82 81 79 78 77 75 73 72 70 66 63 60 56 53 49 44 37 30 26 23 23 21 15 10 6 4 3 3 2 3 4 4 3 2 2 2 2 2 2 3 8 14 19 19 20 25 39 52 63 71 79 81 82 83 84 83 81 78 75 76 76 79 84 84 84 83 83 82 82 82 82 82 82 82 81 81 81 82 84 84 84 84 84 83 82 81 82
85 83 81 81 80 79 78 79 80 79 78 79 81 82 85 84 83 83 81 81 79 78 76 75 73 70 68 64 61 58 56 51 44 37 30 25 24 22 18 12 7 4 3 2 4 9 14 12 8 4 2 2 2 2 2 1 2 3 5 6 9 15 26 40 52 63 72 77 80 82 83 84 83 80 75 73 73 75 77 81 83 84 84 83 83 82 82 82 82 81 81 81 81 81 82 83 84 84 84 84 83 82 82
84 83 82 81 81 79 77 77 77 76 75 76 78 81 82 83 83 83 82 82 81 80 79 77 75 74 72 68 65 62 61 57 51 45 38 32 29 26 22 16 10 6 4 3 10 20 28 24 17 9 3 2 2 2 2 2 2 1 1 2 3 7 14 29 42 54 63 71 77 80 81 82 83 82 79 74 73 72 72 77 81 83 83 84 82 81 81 82 82 82 81 80 80 80 81 82 83 85 85 85 84 83 82
83 83 83 81 80 78 77 75 74 73 72 72 74 77 77 80 82 83 83 83 83 82 82 80 79 77 75 72 69 66 64 62 59 54 49 43 38 34 29 22 16 11 8 10 20 30 36 31 24 16 7 5 4 4 4 3 2 2 2 2 2 2 5 17 32 46 56 64 71 76 80 81 82 82 81 78 77 75 74 77 78 79 80 80 77 76 79 81 83 83 82 81 80 79 80 81 82 84 85 86 85 84 83
83 83 83 81 80 77 75 74 72 70 68 68 70 71 71 76 79 81 82 82 82 83 83 83 81 80 77 75 73 71 68 67 65 63 60 54 49 43 37 31 24 19 17 25 33 38 37 33 27 20 13 11 10 9 8 6 3 2 2 2 2 2 2 7 20 36 50 59 66 71 76 79 80 81 81 80 79 79 79 78 78 77 77 74 74 76 78 81 83 84 84 83 82 81 80 81 82 82 84 85 85 85 85
84 85 85 83 81 78 76 74 72 70 67 65 65 64 62 69 73 77 80 80 80 81 82 83 82 81 79 77 76 74 73 69 66 64 64 61 56 51 46 40 34 30 31 39 43 42 38 34 30 25 20 18 16 15 13 9 5 3 2 3 3 2 2 3 10 23 41 54 62 68 72 75 77 79 79 79 79 80 80 80 79 79 78 75 75 76 78 80 81 83 84 85 84 84 83 82 82 82 81 83 84 85 85
81 84 85 83 81 79 77 75 73 72 69 66 63 61 58 61 64 68 73 73 75 77 79 81 81 81 80 79 79 77 74 68 63 60 60 61 60 57 52 47 43 42 45 46 44 41 38 35 33 30 26 23 21 19 16 11 7 4 2 3 3 3 3 2 5 13 30 47 58 66 69 72 74 75 76 78 79 80 80 81 81 80 80 78 77 76 77 79 80 82 83 84 85 85 85 85 84 82 79 81 83 84 85
78 81 83 82 81 79 78 76 75 73 70 67 64 61 59 58 57 57 60 61 64 67 67 70 74 78 80 80 79 77 72 66 60 55 52 54 55 56 56 52 50 49 49 45 41 38 36 33 30 28 26 24 22 20 18 14 9 6 3 3 3 3 3 3 3 7 18 38 52 62 67 70 72 73 73 76 77 79 80 81 81 81 80 79 78 78 78 79 80 81 82 83 84 85 85 86 86 84 80 81 81 81 83
73 77 81 83 83 82 80 79 78 76 75 72 70 69 68 67 66 65 65 65 65 65 64 67 72 76 76 74 73 70 67 62 57 53 49 48 49 51 53 53 52 49 46 42 39 35 32 29 26 25 24 23 22 20 19 16 13 10 6 4 3 3 3 3 3 4 8 24 41 55 63 68 70 72 72 74 76 77 78 79 81 82 81 81 80 79 79 79 80 81 81 81 82 83 84 85 86 86 83 81 81 81 81
69 71 75 78 80 82 83 81 80 79 79 78 77 76 73 69 67 67 70 73 73 72 70 73 75 75 71 66 63 61 59 56 53 50 48 47 46 46 48 50 50 48 45 42 39 37 34 32 30 28 27 25 23 20 18 17 15 13 9 6 4 3 3 4 3 3 3 11 28 46 58 64 69 71 70 72 74 75 76 78 80 81 82 82 82 81 80 80 80 80 80 80 81 82 83 84 85 85 85 84 82 81 80
66 65 66 68 69 72 75 75 75 74 75 76 78 78 74 68 62 60 61 66 68 67 65 66 68 67 65 61 57 54 51 48 47 47 46 45 44 44 45 47 48 47 45 44 42 41 40 38 35 33 30 28 24 21 18 17 15 13 11 8 6 4 4 4 4 4 3 4 16 34 54 61 66 69 69 69 71 73 74 75 77 79 81 82 83 83 82 82 81 81 81 81 81 82 83 84 84 85 84 85 84 83 81
65 64 64 64 64 65 67 69 70 70 70 70 72 74 73 69 64 59 56 56 57 56 55 54 54 55 55 54 53 50 47 44 43 43 44 43 42 42 43 45 47 47 47 46 46 45 44 42 40 37 34 31 28 24 22 19 17 15 13 10 8 6 5 4 4 4 4 3 7 20 48 57 63 67 68 67 69 71 71 72 74 76 78 80 82 84 84 84 84 83 83 83 83 84 84 85 85 85 85 85 85 84 85
68 67 66 65 65 66 67 68 70 70 70 69 69 69 69 66 63 60 57 56 54 53 52 50 48 47 47 47 48 48 46 43 41 41 41 41 41 40 40 42 43 44 46 46 47 47 46 44 42 40 38 35 32 29 26 23 21 19 17 14 12 9 7 6 5 5 5 4 3 10 29 49 59 64 67 68 69 70 70 71 73 75 75 74 77 81 83 84 85 85 85 85 85 86 86 87 87 87 86 86 86 86 86
69 69 69 68 68 68 69 70 72 72 72 72 71 70 69 65 63 61 59 58 57 56 55 53 51 49 47 45 45 46 45 44 43 42 42 42 42 41 40 40 40 40 42 43 45 46 46 45 44 42 40 38 36 34 31 28 26 23 21 19 16 14 11 9 7 6 6 5 4 4 7 29 46 58 63 66 67 67 68 68 71 73 75 71 73 76 79 81 83 84 84 84 85 85 86 87 87 87 87 87 87 86 86
70 70 70 69 69 69 70 71 73 73 74 74 74 73 71 68 65 64 62 61 60 59 58 56 55 53 51 49 47 47 46 46 46 45 45 45 45 44 43 42 41 41 40 41 43 44 46 46 46 45 44 42 40 38 36 34 31 28 26 23 21 18 16 14 11 9 7 7 6 5 4 6 21 40 57 61 63 64 64 66 69 72 73 71 71 73 75 77 79 81 81 82 82 83 83 84 85 86 86 87 86 86 85
70 70 70 70 70 70 70 71 72 73 74 74 75 74 74 72 69 67 65 63 62 61 60 58 57 56 55 54 53 52 51 51 50 49 49 49 49 49 48 47 46 45 43 43 43 44 45 46 47 47 47 45 43 41 39 37 35 33 30 28 25 22 20 18 15 13 11 9 8 8 8 5 11 25 48 53 58 63 65 63 65 68 71 71 71 72 72 73 75 78 79 80 81 81 81 82 83 83 84 84 85 85 85
70 69 70 71 71 71 71 72 73 73 74 74 74 74 75 73 72 70 68 66 64 63 62 61 60 60 60 60 59 59 58 57 56 55 53 52 52 52 52 52 51 50 48 47 46 46 45 45 45 46 45 44 43 41 40 39 38 37 35 33 31 28 25 22 19 17 14 13 11 11 12 10 14 21 28 47 56 60 64 63 63 65 68 70 71 71 71 71 73 75 77 78 79 80 80 81 81 81 82 82 83 83 84
69 69 69 70 70 70 70 71 72 73 74 75 75 75 74 74 73 72 71 69 67 66 64 63 62 61 61 61 62 61 61 61 60 60 58 57 56 55 54 54 54 53 52 51 50 49 48 47 46 46 45 45 44 43 42 42 41 41 40 39 38 35 32 28 24 21 18 16 15 14 15 17 17 16 13 39 53 60 62 62 63 64 66 67 69 71 72 71 71 73 75 76 78 79 80 80 81 81 81 81 81 82 83
71 69 69 69 69 70 70 71 72 72 73 74 75 75 75 74 73 72 71 70 69 67 65 64 63 62 62 63 63 63 64 64 64 63 63 61 60 59 57 57 56 56 55 54 53 52 51 51 50 49 48 48 48 47 47 46 46 45 44 44 43 41 39 36 32 28 24 21 19 18 18 21 23 24 22 39 51 59 62 63 63 64 65 66 67 68 71 71 72 72 73 75 77 78 78 79 80 81 81 81 81 81 81
74 73 72 71 70 70 70 71 72 72 73 73 74 74 75 74 73 72 71 71 70 69 67 66 66 65 65 65 65 65 65 65 65 65 65 64 63 62 61 60 59 58 57 56 55 54 53 53 53 52 52 51 50 50 50 49 49 48 48 47 47 46 44 42 39 35 31 27 24 21 20 22 25 28 31 41 52 60 63 65 65 65 64 66 66 67 69 71 72 73 72 74 76 77 78 78 79 80 81 81 81 81 81
74 74 74 74 73 72 72 73 73 73 73 73 74 74 74 74 73 73 72 71 70 69 68 67 67 67 66 66 66 66 67 67 66 66 66 66 65 65 64 63 62 61 60 59 57 56 55 54 54 54 53 52 51 50 50 49 48 48 47 47 47 46 46 45 43 41 39 36 32 28 24 23 24 27 30 40 51 61 64 66 68 68 65 66 67 68 69 71 72 72 71 73 74 76 77 78 78 79 80 81 81 81 81
73 73 73 73 73 73 72 72 73 73 73 74 74 74 74 73 73 72 71 71 70 69 69 68 67 67 67 66 67 67 68 68 68 68 68 67 67 67 66 65 64 63 62 60 59 58 56 55 54 54 53 52 51 50 49 49 48 47 47 47 47 47 47 47 46 45 44 42 40 37 33 29 27 26 27 32 43 55 64 66 68 69 68 67 67 69 70 70 70 70 71 72 73 75 77 78 78 79 79 80 81 81 82
75 73 72 72 73 73 73 73 73 72 73 73 73 73 73 73 72 72 71 71 70 69 69 69 68 68 68 67 67 67 68 68 68 68 68 67 67 66 65 65 64 63 62 61 60 59 58 56 55 54 53 52 51 50 49 48 48 48 48 47 47 47 48 48 48 47 47 46 44 43 41 38 34 31 30 30 34 42 56 62 66 68 70 68 68 68 70 69 70 70 72 73 73 74 75 77 78 79 79 80 80 81 82
77 75 74 73 73 73 73 74 74 74 73 72 72 72 72 72 72 72 72 72 72 71 70 70 70 69 69 69 69 69 69 69 69 69 69 68 67 66 66 65 64 63 62 61 60 59 58 57 56 54 53 52 51 50 49 49 48 48 48 48 48 48 48 48 48 48 47 47 46 45 44 43 41 39 36 35 34 37 42 52 60 65 68 69 68 68 68 70 71 71 72 73 73 74 75 76 77 79 80 79 79 80 81
78 76 75 74 73 73 73 73 74 74 74 73 72 72 72 72 73 73 73 73 72 72 71 71 72 72 71 72 72 71 71 71 70 70 70 69 68 68 67 65 64 63 62 61 60 60 59 57 56 55 54 53 52 51 50 49 48 48 48 48 48 48 49 48 48 48 47 46 45 44 43 42 42 41 40 39 39 39 40 45 51 58 64 67 68 68 68 68 69 71 71 73 73 74 74 74 76 78 79 78 78 78 80
78 77 76 75 74 74 73 73 73 73 74 74 73 73 73 73 73 73 74 73 73 72 72 72 73 73 72 73 73 73 72 72 71 70 69 69 68 67 67 65 64 63 62 61 60 60 59 58 57 56 54 53 52 51 50 49 49 48 48 48 48 48 49 48 48 47 46 45 44 42 41 40 40 39 40 40 40 40 42 45 48 52 59 64 67 69 69 68 68 69 70 72 73 74 74 73 74 76 77 78 77 77 78
78 77 76 76 75 74 74 73 73 73 73 73 73 73 72 73 73 73 73 73 72 71 71 71 71 71 72 72 72 72 72 71 70 69 68 67 66 65 65 64 63 62 62 61 60 60 59 58 57 56 54 53 52 51 50 49 48 48 47 47 47 47 47 47 47 46 45 44 43 41 40 39 38 38 37 38 38 39 40 42 46 50 54 59 64 68 70 70 69 68 69 71 72 73 73 74 74 75 75 76 76 76 77
78 77 76 76 76 76 75 74 73 73 73 73 72 72 71 72 73 73 73 72 71 70 69 69 69 69 69 70 70 70 70 69 69 68 67 66 64 63 62 62 61 61 60 60 59 59 58 57 56 55 54 53 52 50 49 48 48 47 46 45 45 45 45 45 45 44 44 43 42 41 40 39 38 37 37 36 36 37 37 39 42 45 49 54 59 64 68 70 69 68 69 70 71 72 73 74 75 74 75 75 75 76 77
76 76 76 76 76 76 76 74 73 72 71 71 71 71 71 72 72 72 71 70 69 68 68 68 68 68 68 68 67 67 67 67 67 66 65 64 63 62 61 60 60 59 59 59 58 58 58 57 56 55 53 52 51 50 49 48 47 46 45 44 44 43 43 43 43 43 43 42 42 41 40 40 39 39 38 37 37 37 38 39 40 42 45 49 53 57 63 68 69 68 69 70 70 72 73 74 75 75 75 74 74 76 77
73 74 74 74 74 74 74 73 72 71 71 70 70 70 71 72 72 72 71 69 68 68 68 68 68 68 68 67 67 66 66 66 65 64 64 62 61 60 60 59 59 58 58 57 57 56 56 56 55 54 52 51 50 49 48 47 46 45 45 44 43 43 42 42 42 42 42 42 42 42 42 41 41 41 41 41 41 41 42 42 43 44 45 48 51 54 58 64 67 69 69 69 70 71 72 73 74 74 74 73 74 75 76
73 73 73 73 72 72 71 71 71 71 71 71 70 70 71 72 72 72 71 70 69 68 69 69 69 69 68 67 67 67 66 65 64 63 62 61 59 58 58 57 57 56 56 56 55 55 54 54 53 52 52 51 50 49 48 47 46 45 45 44 44 43 43 43 43 43 43 43 43 43 43 43 43 43 44 44 45 46 48 48 49 49 50 51 54 56 59 63 67 71 71 70 70 71 71 72 73 73 74 73 73 74 75
73 73 73 73 72 71 70 70 70 71 72 72 72 72 71 72 71 71 71 71 71 71 71 70 70 70 70 69 68 67 66 65 63 61 60 59 57 56 55 55 54 54 54 54 54 53 53 52 52 51 51 50 50 48 47 46 45 45 44 44 44 44 43 43 43 43 43 43 44 44 44 44 45 45 46 47 48 50 51 53 54 54 55 56 58 60 63 67 70 73 75 74 73 71 71 71 72 73 73 73 73 73 73
72 73 73 73 72 71 70 69 69 71 72 73 73 73 73 72 71 71 70 71 71 72 72 71 71 71 71 70 69 67 66 64 63 61 59 57 56 55 54 53 53 53 52 52 52 52 52 51 51 50 50 49 49 48 47 46 45 44 44 44 44 44 44 44 44 44 44 45 45 46 46 46 46 47 48 48 49 50 51 52 53 54 55 57 58 61 64 70 74 76 77 77 76 74 73 72 72 72 72 73 72 72 72
72 72 72 72 71 71 70 69 69 71 72 73 74 75 74 73 73 72 71 70 70 71 71 71 70 70 71 70 69 68 66 64 63 61 59 58 57 56 55 54 54 53 52 52 51 50 50 50 50 49 49 48 48 47 47 46 45 44 44 44 44 44 44 45 45 45 46 46 47 47 47 47 48 48 49 50 50 50 49 49 49 49 50 52 54 56 59 64 69 73 77 78 78 77 75 74 73 73 72 72 72 72 71
72 72 72 71 70 70 69 69 69 70 72 73 74 74 74 73 73 71 70 69 69 68 69 69 69 69 69 69 68 67 65 64 63 62 60 60 59 58 57 56 54 53 52 51 50 49 49 48 48 48 48 47 47 46 46 45 45 45 44 44 44 44 44 45 45 46 47 47 48 48 47 47 47 47 49 49 50 49 48 47 46 46 45 46 47 49 51 54 57 62 68 74 76 76 76 76 75 75 74 73 72 71 71
72 72 72 71 71 70 68 68 69 70 71 72 73 73 73 72 72 71 69 68 68 67 66 67 67 67 67 66 65 65 63 62 62 61 60 59 58 57 56 55 54 53 52 50 49 48 48 48 47 47 46 46 46 45 45 45 44 44 44 44 44 44 44 44 45 46 47 48 48 47 47 46 46 46 47 48 49 49 48 47 46 45 44 43 43 43 44 45 47 49 53 60 67 73 77 77 76 76 75 74 73 72 71
70 71 72 72 71 70 69 68 68 69 69 70 71 72 72 72 71 70 69 68 67 67 67 67 67 67 66 65 64 63 62 60 60 59 59 58 56 55 53 51 50 48 47 47 47 47 47 47 47 46 46 45 45 45 44 44 44 44 44 44 44 43 43 43 44 45 46 47 47 46 46 46 46 46 47 47 47 47 47 47 46 45 44 43 42 42 41 41 41 41 42 45 51 58 68 74 76 77 76 75 74 73 72
70 71 71 71 71 70 70 69 69 69 69 70 71 71 71 71 71 71 70 68 67 66 67 67 68 68 67 66 64 62 60 59 58 58 58 57 55 52 49 47 45 44 44 43 44 44 45 45 46 45 45 45 44 44 44 44 44 44 44 43 43 43 42 42 43 44 45 45 45 45 45 46 46 47 48 47 47 47 47 46 46 45 44 43 43 42 42 41 40 39 38 38 39 43 49 59 68 74 77 76 76 75 74
70 70 71 71 70 70 69 69 68 69 69 69 70 70 70 70 70 70 70 69 67 66 66 66 66 67 67 66 64 63 60 59 58 57 56 55 53 51 48 47 47 46 45 43 42 42 43 44 44 44 44 44 44 44 44 44 44 44 43 43 43 43 42 42 42 42 43 43 44 44 45 46 47 48 48 48 47 47 46 46 46 45 44 44 44 44 43 42 40 39 39 38 37 37 37 41 48 58 69 74 76 76 76
67 68 69 69 69 69 69 69 68 68 68 69 68 68 69 69 69 69 69 68 67 66 66 65 65 64 64 64 64 63 61 59 58 57 56 54 53 52 50 50 49 46 43 40 39 39 40 43 44 44 44 44 44 44 43 43 43 43 43 43 43 43 42 42 42 42 42 43 43 44 44 45 46 47 47 47 47 47 47 46 46 46 45 45 45 45 44 43 42 40 40 40 39 39 37 36 37 41 48 60 69 75 76
63 64 65 66 67 67 68 68 68 68 68 68 67 67 66 66 66 66 67 66 66 66 66 66 65 64 63 62 62 61 59 59 58 57 57 56 54 53 51 51 49 47 44 42 41 40 38 38 41 44 45 45 44 43 43 43 43 43 43 43 43 42 42 42 42 42 42 43 44 44 44 45 45 46 46 47 47 47 48 47 47 47 47 46 46 46 45 44 43 42 42 41 41 41 40 39 38 37 38 43 52 62 72
60 61 62 63 64 64 65 65 66 66 66 67 67 66 66 65 64 63 63 63 63 63 63 64 64 64 64 62 60 59 57 57 57 58 58 57 56 55 54 52 50 47 44 44 42 39 37 34 32 34 43 44 44 43 43 42 42 42 42 42 42 42 42 43 43 43 43 43 43 44 44 45 45 45 46 46 47 47 48 48 48 48 48 47 47 46 46 45 44 44 43 43 43 42 42 41 40 39 38 38 40 46 55
57 58 60 61 61 62 63 64 64 64 64 65 66 66 65 64 63 62 60 59 59 59 59 60 62 63 63 62 60 58 56 55 54 55 57 57 57 56 55 54 52 50 46 45 43 41 39 38 38 37 38 41 43 43 43 42 42 42 42 42 42 42 42 43 43 43 43 43 43 44 44 45 45 46 46 46 46 47 47 47 48 48 48 48 48 47 46 46 45 45 45 44 44 43 43 43 43 43 42 41 41 42 46
54 55 56 58 59 60 61 62 62 62 63 64 64 64 65 64 64 62 60 59 58 57 57 57 58 59 60 61 60 58 56 54 53 53 54 56 56 56 55 55 54 52 50 48 46 45 46 42 42 42 40 40 40 41 41 41 41 41 41 42 42 42 42 42 42 43 43 43 43 44 44 44 45 46 46 46 47 47 47 47 48 48 48 48 48 48 47 46 46 46 45 45 44 43 43 43 44 44 45 46 46 47 50
50 51 52 54 55 57 58 60 60 61 61 62 62 63 63 63 63 62 61 60 59 58 57 57 57 57 58 59 59 59 58 56 55 53 53 54 55 56 57 55 55 55 53 53 52 50 47 47 46 45 42 41 41 41 41 41 41 41 41 41 42 42 42 42 42 42 42 43 43 43 44 44 44 45 46 46 46 46 46 46 47 47 48 48 48 48 47 47 46 46 45 45 44 43 42 42 43 44 46 48 50 53 57
47 48 49 50 51 53 55 56 58 59 59 60 60 61 61 61 61 61 61 60 59 58 57 57 57 57 57 58 58 59 59 57 56 54 53 53 54 56 57 57 56 54 52 54 54 53 52 52 51 49 47 44 43 42 42 43 43 43 42 42 42 42 42 42 42 42 42 42 42 43 43 44 44 44 45 45 45 46 46 46 46 46 47 47 48 48 47 47 46 46 46 45 44 43 41 41 42 43 45 48 53 58 63
45 46 48 48 49 51 52 53 54 56 57 57 58 59 60 59 59 59 59 58 58 57 57 56 56 57 57 57 58 59 59 58 57 56 54 53 53 54 56 58 58 57 56 55 54 54 55 56 55 53 51 48 45 43 41 42 43 43 44 44 43 43 43 42 42 42 42 42 42 42 43 43 43 44 44 44 45 45 45 45 45 46 46 47 47 47 47 47 47 46 46 45 44 43 42 42 42 43 44 47 52 57 63
43 45 46 47 48 49 50 50 51 52 54 55 56 57 58 58 58 58 58 57 57 57 57 57 56 57 57 57 58 59 59 59 58 57 56 55 54 53 54 56 58 58 58 57 57 56 56 57 57 57 56 52 49 46 43 41 41 41 42 42 43 43 43 43 43 42 42 42 42 42 42 43 43 43 43 44 44 44 45 45 45 45 46 46 46 47 47 47 47 46 46 46 45 44 43 43 43 44 45 48 52 57 63
43 44 45 46 47 48 49 49 50 50 51 52 53 54 55 56 57 57 57 57 57 57 57 57 57 57 57 58 58 59 59 59 58 57 57 56 54 53 53 54 55 57 58 58 58 57 57 57 57 57 58 57 53 49 46 44 42 40 39 40 40 41 43 43 44 44 43 42 42 42 42 42 43 43 43 43 43 44 44 44 45 45 45 46 46 47 47 47 47 47 47 46 45 44 43 43 43 44 46 49 53 57 62
Wind_Speed
6 6 6 6 6 5 5 5 5 5 5 5 5 5 5 6 6 6 6 6 6 6 6 6 6 6 6 6 6 7 7 7 7 7 7 6 6 5 4 4 4 3 3 4 6 7 8 8 7 6 6 6 6 6 7 8 8 9 9 10 10 9 9 10 10 10 9 9 9 9 9 9 9 9 9 8 8 8 8 9 9 9 9 9 9 9 9 9 9 9 9 9 9 9 10 10 10 10 10 10 10 10 10
6 6 6 5 5 5 5 5 5 5 5 5 4 5 5 5 5 5 5 5 6 6 6 6 6 6 6 6 6 6 6 6 7 7 7 7 6 6 5 5 4 4 4 4 5 6 7 7 6 6 6 6 6 6 6 7 7 8 9 10 9 9 9 9 9 9 8 8 8 8 8 8 8 8 8 8 8 8 8 8 8 8 8 9 9 9 9 9 9 9 9 9 9 9 9 9 9 10 10 10 10 10 10
6 6 6 5 5 4 4 5 5 4 4 4 4 4 4 4 4 4 5 5 5 5 5 5 5 5 5 5 5 5 5 5 6 6 6 7 7 6 6 5 5 4 4 4 5 5 6 6 6 6 5 6 6 5 5 6 6 7 8 9 9 8 8 8 8 8 8 8 8 8 7 7 8 8 7 7 7 7 7 8 8 8 8 8 8 8 8 8 8 8 8 8 8 8 8 8 9 9 9 9 9 9 9
6 6 5 5 4 4 4 4 4 4 4 3 3 3 3 3 4 4 4 4 4 4 4 5 4 4 4 4 4 4 4 4 5 5 6 6 7 7 6 5 5 5 4 4 4 4 5 5 5 5 5 5 5 5 5 5 5 6 7 8 8 8 8 7 7 7 7 7 7 7 7 7 7 7 7 7 7 7 7 7 7 7 7 7 7 7 7 8 8 7 7 7 7 8 8 8 8 8 8 8 9 9 9
6 6 5 5 4 4 3 4 4 4 3 3 3 3 3 3 3 3 3 3 3 4 4 4 4 3 3 3 3 3 4 4 4 4 4 5 6 7 7 6 5 5 4 4 3 3 4 4 4 3 3 4 4 4 4 4 5 5 6 7 7 7 7 7 7 7 6 6 6 6 6 6 6 6 6 6 6 6 6 6 6 7 6 6 6 6 7 7 7 7 7 7 7 7 7 7 7 7 8 8 8 8 8
6 6 5 4 4 3 3 3 4 3 3 3 3 2 2 2 2 2 2 2 3 3 3 3 3 3 3 2 2 3 3 3 3 3 3 4 5 6 6 6 6 5 4 4 3 3 4 3 2 1 2 3 3 4 4 4 4 4 5 6 6 6 6 6 6 6 6 6 6 6 6 5 5 5 5 6 5 5 5 5 6 6 6 6 6 6 6 6 6 6 7 7 6 6 6 6 6 7 7 7 7 7 7
6 6 5 4 3 3 3 3 3 3 3 3 3 2 2 2 1 1 1 1 1 1 2 2 2 2 2 2 2 2 2 2 2 3 3 4 5 6 6 6 6 6 5 4 4 3 3 3 2 2 1 1 2 3 3 3 3 3 3 5 5 6 6 6 6 6 5 5 5 5 5 5 5 5 5 5 5 5 5 5 5 5 5 5 6 5 5 5 5 6 6 6 6 6 6 6 6 6 6 6 6 7 7
6 5 5 4 3 3 3 3 3 3 3 3 3 2 2 1 0 0 1 1 1 1 2 2 2 3 3 3 3 2 2 2 2 2 3 4 5 6 6 6 6 6 5 4 4 3 3 2 2 2 1 2 1 2 2 3 3 3 3 4 4 4 5 6 6 5 5 5 5 5 5 5 4 4 4 4 4 4 4 4 4 4 4 4 5 5 5 5 5 5 5 5 5 5 5 5 5 5 6 6 6 6 6
6 6 5 4 3 3 4 4 4 3 3 3 3 2 2 1 1 1 1 1 2 2 3 3 3 4 4 4 4 4 4 3 3 3 3 4 5 6 7 6 6 6 5 5 4 3 3 2 2 2 1 1 0 1 1 2 2 2 2 2 1 2 5 6 5 5 5 5 4 4 4 4 4 4 4 4 4 4 4 4 4 4 4 4 4 4 4 4 4 4 4 4 5 5 5 5 5 5 5 5 5 5 5
7 6 5 4 4 4 4 4 4 3 3 3 3 3 2 2 2 2 2 2 3 3 3 4 4 5 5 5 5 5 5 5 5 5 5 5 6 7 7 7 6 6 5 5 4 4 3 2 2 1 0 0 1 1 2 1 2 2 2 3 2 0 4 5 5 5 5 4 4 4 4 4 4 4 4 4 3 3 3 3 3 3 3 3 3 3 3 3 3 3 3 4 4 4 4 4 4 4 4 4 5 5 5
7 6 5 5 4 4 4 4 4 4 3 3 3 3 3 3 3 3 3 3 3 3 4 4 5 5 6 6 6 6 6 6 6 6 6 6 7 7 8 7 7 6 6 5 4 4 3 3 2 2 1 2 2 2 3 3 2 2 3 4 5 3 2 4 5 5 5 4 4 4 4 4 4 4 3 3 3 3 3 3 3 3 3 3 3 3 3 3 3 3 3 3 3 3 3 3 3 3 3 3 4 4 4
8 7 6 5 4 4 4 4 4 4 4 3 3 4 3 3 3 3 3 4 4 4 4 5 5 6 6 7 7 7 7 7 7 6 6 7 7 8 8 8 7 6 6 5 5 5 4 4 4 3 3 3 3 3 3 3 4 4 4 6 7 5 2 3 5 5 5 5 5 4 4 4 4 4 4 4 4 4 4 4 3 3 3 3 3 3 3 3 3 3 3 3 3 3 3 3 3 3 3 3 3 3 3
8 7 6 5 5 4 5 4 4 4 4 4 4 4 4 4 4 4 4 4 5 5 5 5 6 6 7 7 7 8 8 8 8 7 7 7 7 8 8 8 7 6 6 6 6 6 6 6 5 5 5 4 4 4 4 4 4 5 6 7 7 6 4 4 5 6 6 6 6 5 5 5 5 5 5 5 5 5 4 4 4 4 4 4 4 4 4 4 4 4 3 3 3 3 3 3 3 3 3 3 3 3 3
9 8 6 6 6 5 5 5 5 5 4 4 4 5 5 5 5 5 5 5 5 6 6 6 6 7 7 7 8 8 9 9 9 8 7 7 7 8 9 9 8 7 6 6 6 6 7 7 7 7 7 6 6 5 5 5 5 6 6 6 7 7 5 5 6 6 7 7 7 6 6 6 6 6 6 6 6 6 6 6 5 5 5 5 5 5 5 5 5 5 5 4 4 4 4 4 3 3 3 3 3 3 3
9 8 7 7 7 7 6 6 6 6 5 5 5 6 6 6 6 6 6 6 6 7 7 7 7 7 8 8 9 9 10 10 10 9 8 7 7 8 9 10 9 9 8 7 6 6 6 7 8 9 9 8 8 7 7 7 7 6 6 6 7 7 6 6 6 7 7 8 7 7 7 7 7 7 8 7 7 7 7 7 7 7 6 6 6 6 6 6 6 6 6 6 5 5 5 5 4 4 4 4 3 3 3
9 9 9 9 8 8 8 7 7 7 6 6 6 6 7 7 7 7 7 7 7 8 8 8 8 8 9 9 10 10 11 10 10 10 9 9 8 9 10 11 11 11 10 8 6 5 5 6 8 10 10 10 9 9 9 9 8 7 7 7 7 7 7 7 6 7 8 8 8 8 8 8 8 8 8 8 8 8 8 8 8 8 8 8 7 7 7 7 7 7 7 7 7 6 6 6 6 5 5 5 4 4 4
9 9 10 10 9 9 9 8 8 8 8 7 7 7 7 8 8 8 8 8 8 8 9 9 9 9 10 10 11 11 11 10 10 11 11 11 10 10 10 11 12 12 10 8 6 5 6 7 9 11 11 10 10 10 10 11 10 9 8 8 8 8 8 8 7 7 8 9 9 9 9 9 9 9 9 9 9 9 9 9 9 9 9 9 8 8 8 8 8 8 8 8 8 7 7 7 7 7 6 6 5 5 5
9 9 10 10 10 10 10 10 10 10 9 9 9 9 9 9 9 9 10 9 9 9 9 10 10 10 11 11 11 11 10 9 9 10 11 11 11 11 11 11 12 11 9 7 6 7 7 8 10 11 11 10 10 10 11 12 12 11 10 10 10 9 9 9 8 8 8 9 9 10 10 10 10 10 10 10 10 10 10 10 10 10 10 9 9 9 9 9 9 9 9 9 9 8 8 8 8 8 8 7 7 7 6
8 9 10 10 11 11 11 11 11 11 11 11 10 10 10 11 11 11 11 11 11 10 11 11 11 11 12 12 12 11 10 9 9 8 9 9 10 11 11 11 11 10 8 7 7 8 8 9 9 10 11 11 11 11 12 14 14 13 11 11 11 11 10 10 10 9 9 10 10 10 11 11 11 11 11 11 11 11 11 11 11 11 10 10 10 10 11 11 10 10 10 10 10 10 9 9 9 9 9 9 8 8 8
6 8 10 12 12 13 12 12 12 12 12 12 11 11 12 12 12 12 12 12 12 12 12 12 12 12 12 12 12 11 11 10 9 8 8 8 8 9 10 10 9 8 8 8 8 9 9 10 11 11 12 12 12 13 13 15 15 15 13 12 12 12 12 11 11 11 10 11 11 11 11 12 12 12 12 12 12 12 12 12 12 12 12 11 11 11 12 12 12 11 11 11 11 11 11 10 10 10 10 10 9 9 9
7 8 9 10 12 12 11 11 11 11 12 11 11 10 11 11 12 13 13 13 13 13 13 13 13 12 12 12 12 11 11 10 10 9 9 8 8 9 9 9 9 9 9 9 10 11 12 13 14 14 14 14 14 14 14 15 16 16 16 14 13 13 13 13 13 12 12 12 12 12 12 12 12 13 13 13 13 13 13 13 13 13 13 13 13 13 13 13 13 13 12 12 12 12 12 12 11 11 11 11 11 10 10
8 9 9 9 9 9 9 9 9 10 10 10 10 10 9 10 10 11 12 12 12 12 12 12 12 12 12 11 11 11 11 10 10 10 10 10 9 9 10 10 10 11 11 12 13 14 14 15 15 14 14 14 15 15 15 16 17 18 18 17 16 15 14 14 14 14 13 13 13 13 13 13 13 13 13 14 14 14 14 14 14 14 14 14 14 14 14 14 14 14 14 13 13 13 13 13 13 12 12 12 12 11 11
8 8 8 8 8 8 8 8 8 8 8 9 9 9 9 9 9 9 10 10 10 11 11 11 11 11 11 11 11 11 11 10 10 11 11 10 10 10 10 11 12 13 13 14 14 14 14 15 15 15 15 15 16 17 17 18 18 19 20 19 18 17 16 16 16 15 15 14 14 14 14 14 14 15 14 14 15 15 15 15 15 15 15 15 15 15 15 15 15 15 15 15 14 14 14 14 14 14 13 13 13 13 12
8 8 8 8 8 8 8 8 8 8 8 8 9 9 9 9 9 9 9 10 10 10 10 11 11 11 11 11 11 11 11 11 11 12 12 12 11 11 11 12 12 13 14 14 14 14 14 15 15 15 16 16 17 18 19 19 20 20 21 21 20 19 18 17 17 17 16 16 16 15 15 15 16 16 16 16 16 16 16 16 16 16 16 16 16 16 16 16 16 16 16 16 16 15 15 15 15 15 15 14 14 14 14
8 8 8 8 9 9 8 8 8 8 8 8 9 10 10 10 10 10 10 10 11 11 11 11 11 11 12 12 12 12 12 12 13 13 13 13 13 13 13 13 13 13 14 14 14 15 15 15 16 16 16 17 17 18 19 20 20 21 22 22 22 21 20 19 19 19 18 18 17 17 17 17 17 17 17 17 17 17 17 17 17 17 17 17 17 18 18 17 17 17 17 17 17 17 16 16 16 16 16 16 15 15 15
8 9 9 9 9 9 9 9 9 9 9 9 10 10 11 11 11 11 11 11 11 11 11 12 12 12 13 13 14 14 14 14 14 14 15 15 15 15 15 15 15 15 15 15 15 16 17 17 17 17 17 18 18 19 20 21 22 22 23 24 23 22 21 21 20 20 20 19 19 19 18 18 18 18 18 18 18 18 18 18 18 18 18 18 18 18 19 18 18 18 18 18 18 18 18 17 17 17 17 17 17 16 16
9 9 9 10 10 10 10 10 10 10 10 10 10 10 11 11 11 11 12 12 12 12 12 13 13 13 13 14 14 14 14 14 14 15 15 16 16 16 16 16 16 16 16 16 17 18 19 19 20 19 19 19 19 19 20 21 22 23 24 25 25 24 23 22 22 21 21 21 21 20 20 20 19 19 19 19 19 19 19 19 19 19 19 19 19 19 19 19 19 19 19 19 19 19 19 19 18 18 18 18 18 17 17
9 10 10 10 10 10 10 10 10 10 10 10 10 11 11 12 12 12 12 12 12 13 13 13 13 13 13 14 14 14 15 15 15 15 16 16 16 16 17 17 17 17 17 17 17 18 18 19 19 19 19 18 18 19 19 21 22 23 24 26 26 26 26 24 23 23 23 23 22 22 22 21 21 21 20 20 20 20 20 20 20 20 20 20 20 20 20 20 20 20 20 20 20 20 20 20 20 19 19 19 19 19 18
10 10 10 10 10 11 11 11 11 11 11 11 11 11 12 12 12 12 13 13 13 13 13 13 13 13 14 14 14 14 14 15 15 16 16 16 16 16 16 17 17 17 17 17 17 18 18 18 18 18 18 18 18 18 19 20 22 23 25 26 27 28 28 27 26 25 24 24 24 23 23 23 22 22 22 22 22 22 22 21 21 21 21 21 21 21 21 21 21 21 21 21 21 21 21 21 21 21 20 20 20 20 20
10 10 10 10 10 11 11 11 11 11 11 11 11 12 12 12 12 12 13 13 13 13 13 14 14 14 14 14 14 14 14 14 15 15 16 16 16 16 16 17 17 17 17 18 18 18 18 19 19 19 19 19 19 19 20 21 22 23 25 26 28 29 29 29 28 27 26 25 25 25 24 24 24 24 23 23 23 23 23 23 23 22 22 22 22 22 22 22 22 22 22 22 22 22 22 22 22 22 22 21 21 21 21
11 11 11 11 11 11 11 11 11 11 12 11 12 12 12 12 12 13 13 13 13 14 14 14 14 14 14 14 14 14 14 14 15 15 15 16 16 16 17 17 17 18 18 18 18 18 19 19 19 20 20 20 20 21 21 22 23 23 25 26 28 29 30 30 29 29 28 27 26 26 25 25 25 25 25 24 24 24 24 24 24 24 24 23 23 23 23 23 23 23 23 23 23 23 23 23 23 23 23 22 22 22 22
11 11 11 12 12 12 12 12 12 12 12 12 12 12 12 13 13 13 14 14 14 14 14 14 14 14 15 15 15 15 14 14 14 15 15 15 16 16 17 17 18 18 18 18 18 18 19 19 19 20 20 20 21 21 22 22 23 24 25 26 27 28 29 30 30 30 30 29 28 27 27 27 26 26 26 26 25 25 25 25 25 25 25 25 24 24 24 24 24 24 24 24 24 24 24 24 24 24 24 24 23 23 23
12 11 11 11 12 12 12 12 12 12 12 12 12 12 13 13 13 14 14 14 14 14 14 15 15 15 15 16 16 16 15 15 15 15 16 16 16 16 16 17 18 19 19 19 19 19 19 19 19 20 20 20 20 20 21 21 22 23 23 25 26 27 29 30 31 31 31 31 30 29 29 28 28 28 27 27 27 26 26 26 26 26 26 26 26 26 25 25 25 25 25 25 25 25 25 25 25 25 25 25 24 24 24
12 12 12 12 12 12 12 12 12 12 12 12 12 13 13 13 14 14 14 14 14 15 15 15 16 16 16 17 17 17 16 16 16 16 17 17 17 17 17 18 18 19 19 19 20 19 19 19 19 20 20 20 20 20 21 21 21 22 23 24 25 27 28 29 31 32 32 32 32 32 31 31 30 30 29 29 29 28 28 28 27 27 27 27 27 27 27 27 27 26 26 26 26 26 26 26 26 26 26 26 26 25 25
13 13 13 13 13 13 13 13 13 13 13 13 13 13 14 14 14 14 14 14 15 15 15 15 16 16 17 17 17 17 17 17 17 18 18 19 19 19 18 19 18 18 19 19 20 20 20 20 20 20 20 20 20 21 21 21 22 23 23 25 25 26 28 29 30 32 33 33 34 33 33 33 32 32 32 31 31 30 30 29 29 29 29 28 28 28 28 28 28 28 27 27 27 27 27 27 27 27 27 27 27 27 26
14 14 14 14 14 14 14 14 14 14 14 14 14 14 15 15 15 14 14 13 14 14 15 15 15 16 16 17 17 17 17 17 17 18 18 19 19 19 19 19 19 18 18 19 19 20 20 20 20 20 20 20 20 21 21 21 22 23 24 25 26 27 28 29 30 32 33 34 35 35 35 35 34 34 34 34 33 33 32 32 31 31 30 30 30 29 29 29 29 29 29 29 28 28 28 28 28 28 28 28 28 28 28
14 14 15 15 15 15 15 14 14 14 14 14 14 15 15 15 14 14 13 13 13 14 14 15 15 15 16 16 16 16 16 16 16 17 17 17 17 17 17 18 18 18 18 18 18 18 19 20 20 20 20 21 21 21 21 21 22 23 24 25 26 27 28 29 31 32 33 34 35 35 36 36 36 36 35 35 35 35 35 34 34 33 32 32 32 31 31 31 30 30 30 30 30 30 29 29 29 29 29 29 29 29 29
15 15 15 15 15 15 15 15 15 14 14 14 14 14 14 14 14 13 13 13 13 14 14 14 15 15 15 15 16 16 16 15 16 17 17 17 16 17 17 17 17 17 17 17 17 18 18 19 20 20 20 21 21 21 21 22 22 23 24 25 26 27 28 29 30 31 32 33 34 35 35 36 36 36 36 36 36 36 36 36 36 35 35 34 33 33 33 32 32 32 31 31 31 31 31 30 30 30 30 30 30 30 30
15 15 15 15 15 15 15 15 15 15 15 15 15 15 15 14 14 14 13 14 14 14 14 14 15 15 15 15 16 16 16 16 16 17 17 17 17 17 17 17 17 17 17 17 17 18 18 19 19 20 20 20 21 21 21 22 23 23 24 24 25 26 27 28 29 29 30 31 33 34 35 35 36 36 36 37 37 37 37 37 37 37 36 36 35 35 34 34 34 33 33 33 32 32 32 32 31 31 31 31 31 31 31
15 15 15 15 15 15 15 15 15 15 15 15 15 15 15 15 14 14 14 14 14 15 14 14 14 15 15 15 15 16 16 16 16 17 17 17 17 17 17 17 17 17 18 18 18 18 19 19 19 20 20 21 21 21 22 23 24 24 24 25 25 26 27 28 28 29 29 30 31 33 34 35 35 36 36 37 37 37 37 37 37 37 37 37 37 36 36 35 35 35 34 34 34 33 33 33 32 32 32 32 32 31 31
15 15 15 15 15 15 15 15 15 15 15 15 15 15 15 15 14 14 14 15 15 15 15 15 15 15 15 15 15 15 16 16 16 17 17 17 18 18 18 17 17 18 18 18 19 19 20 20 20 21 21 21 21 22 24 24 25 25 26 26 27 27 28 29 29 29 30 30 31 32 33 34 34 35 35 36 36 36 36 37 37 37 37 37 37 37 37 37 36 36 36 35 35 34 34 34 33 33 33 33 33 32 32
15 15 15 15 15 15 15 15 15 14 14 15 15 15 14 14 14 14 14 15 15 15 15 14 14 15 16 16 16 16 16 16 16 17 17 18 18 18 18 18 18 18 18 19 19 20 20 20 21 21 22 22 22 24 25 26 26 27 27 28 29 29 30 30 30 30 31 31 31 32 32 33 33 33 34 34 34 35 35 35 35 36 36 37 37 37 37 37 37 37 37 36 36 36 35 35 35 34 34 34 34 34 33
14 14 14 15 15 15 15 14 14 14 14 14 14 14 14 14 14 14 14 14 15 15 15 14 14 15 16 16 16 15 16 16 16 17 17 18 18 18 18 18 19 19 18 19 19 20 20 20 21 22 22 23 23 25 26 26 27 28 28 29 29 30 30 31 31 32 32 32 32 32 32 32 32 32 32 32 32 33 33 33 34 34 35 35 36 36 36 37 37 37 37 37 37 37 36 36 36 35 35 35 35 35 34
13 13 14 14 14 14 14 14 14 14 14 14 14 14 14 14 14 14 14 14 14 15 15 14 14 14 15 15 15 15 15 16 16 16 16 17 17 18 18 18 18 19 18 19 19 20 20 21 22 22 23 23 24 25 26 26 27 28 28 28 28 29 30 31 31 32 33 33 33 33 33 33 33 32 32 32 31 31 31 32 32 33 34 34 34 35 35 35 35 36 36 36 37 37 37 37 37 36 36 36 36 36 35
12 12 13 13 14 14 14 14 14 14 14 14 14 14 14 14 14 14 14 14 14 14 15 15 14 14 14 15 15 15 15 16 16 16 16 16 17 18 18 18 19 19 19 19 20 20 21 22 22 23 23 24 25 25 26 26 27 27 27 27 27 27 28 29 30 31 31 32 32 32 32 33 32 32 32 31 31 31 31 31 32 32 32 33 33 33 34 34 34 34 35 35 36 36 37 37 37 37 37 37 37 37 36
12 12 13 13 13 13 13 13 13 13 14 14 14 14 14 14 14 14 14 14 14 14 15 15 15 14 14 15 15 16 16 16 16 16 16 16 17 17 18 19 19 19 19 20 20 21 22 22 23 23 24 24 25 25 25 25 25 24 24 25 25 25 26 27 28 29 29 30 30 31 31 31 31 31 30 30 29 29 30 30 30 30 31 31 32 32 33 33 33 33 34 34 35 35 36 37 37 37 38 37 37 37 37
12 12 13 13 13 13 13 13 13 13 13 14 14 14 14 14 14 13 13 13 14 14 15 15 15 15 15 15 15 15 16 16 15 15 16 16 16 17 18 19 19 19 20 21 22 22 23 23 23 24 24 24 24 23 23 23 22 22 21 22 22 23 24 25 26 27 27 28 28 29 29 29 29 28 27 27 26 26 27 27 27 28 28 29 29 30 30 31 32 32 33 33 34 34 35 36 36 37 37 38 38 38 38
13 13 13 13 13 13 13 13 13 13 14 14 14 14 15 14 14 14 14 13 14 14 14 14 15 15 15 15 14 14 14 14 14 14 14 15 16 17 17 18 19 20 21 22 23 23 23 23 24 24 24 23 23 22 22 21 21 20 20 20 20 20 22 23 24 25 25 26 26 26 27 27 27 26 25 24 24 24 24 24 25 25 26 26 27 27 28 29 29 30 31 32 33 33 34 35 35 36 37 37 38 38 38
13 13 13 13 13 13 13 13 13 14 14 14 14 15 15 15 15 15 15 15 15 15 15 15 15 15 15 15 15 14 14 13 13 12 13 14 15 16 16 16 17 18 19 19 20 21 22 23 23 24 24 23 22 21 21 20 19 19 19 18 18 18 19 20 22 23 23 24 24 24 25 25 25 25 24 24 24 23 23 23 24 24 24 25 25 26 26 27 27 28 29 30 31 31 32 33 34 35 36 37 38 38 39
12 13 13 13 13 13 13 13 13 13 14 14 14 15 15 15 15 16 16 16 16 16 15 15 15 15 15 15 15 14 13 13 12 11 12 13 13 12 12 13 15 16 17 17 18 20 22 23 23 24 23 23 21 20 19 19 18 18 18 17 18 18 18 18 19 20 21 22 23 23 24 24 24 24 24 24 24 24 24 24 23 23 24 24 24 25 25 26 26 27 27 27 28 29 30 31 32 33 34 35 37 37 38
12 13 13 13 13 13 13 13 13 13 13 14 14 15 15 15 16 16 16 16 17 16 16 16 15 15 15 15 15 14 13 12 11 11 11 12 11 10 9 11 14 16 17 18 18 19 20 22 23 24 24 22 20 19 18 17 17 17 17 17 18 18 17 17 17 18 19 21 22 23 23 24 24 24 24 25 25 25 24 24 24 24 24 24 24 24 25 26 26 27 27 27 27 27 27 28 30 31 32 34 35 36 37
13 13 13 13 13 13 13 13 13 13 13 13 14 14 15 15 15 15 15 15 16 16 16 15 15 14 14 14 14 14 13 13 12 12 11 12 12 12 12 12 10 7 6 11 13 13 15 18 21 24 23 22 20 18 17 17 17 17 17 18 18 18 17 17 16 16 17 19 21 22 23 23 24 24 25 25 25 25 25 25 25 25 25 24 24 24 25 26 27 27 27 27 27 27 27 27 28 29 30 31 33 34 35
13 13 14 14 13 13 13 13 13 13 13 13 14 14 14 14 14 14 14 14 14 15 15 15 15 14 14 14 14 14 14 13 13 14 14 13 12 11 11 7 5 5 5 6 7 8 11 12 15 18 19 19 19 18 17 16 16 17 17 17 17 17 17 17 17 16 17 18 20 21 22 23 24 25 25 26 26 26 26 26 25 25 25 25 25 25 25 26 27 27 27 28 27 28 28 28 28 28 28 29 30 32 33
14 14 14 14 14 14 13 13 13 13 13 13 13 14 14 14 14 15 14 14 14 14 14 15 15 15 14 14 14 13 13 13 13 13 14 13 11 8 6 4 4 5 6 5 6 7 5 6 6 5 8 13 16 17 17 16 16 15 16 16 17 17 16 16 16 17 18 19 20 21 22 23 24 25 25 26 26 26 26 26 26 26 25 25 25 26 26 27 27 27 28 28 29 29 29 29 29 29 29 29 29 30 31
14 14 14 14 14 14 14 14 14 14 13 13 14 14 14 15 15 15 15 15 15 15 14 14 14 15 14 15 15 14 14 13 13 13 13 14 13 10 5 4 4 6 6 5 5 4 4 5 9 11 8 6 9 13 14 15 15 15 15 15 16 16 15 16 16 17 18 18 19 20 21 21 22 23 24 25 25 26 26 26 25 25 25 26 26 26 27 27 27 28 28 29 29 30 30 30 30 30 30 30 30 30 30
14 14 14 15 15 15 15 15 15 14 14 14 14 14 15 15 15 15 16 16 16 16 16 16 16 16 15 15 15 15 15 14 14 13 13 14 15 15 13 8 4 3 3 4 4 4 4 9 9 8 11 10 8 8 10 12 14 15 15 16 16 16 16 16 16 16 17 17 18 18 19 20 20 21 23 23 24 25 25 25 25 25 25 25 26 26 27 27 27 28 28 29 30 30 31 31 31 31 30 30 30 30 30
14 15 15 15 15 15 15 15 15 15 15 15 15 15 15 15 16 16 16 16 17 17 17 17 17 17 17 16 15 15 15 15 14 14 14 14 15 16 16 16 12 7 6 4 4 5 9 13 8 5 10 14 13 11 11 11 12 14 15 16 16 17 17 17 17 17 17 17 18 18 19 19 19 20 21 22 23 24 24 25 25 25 25 25 25 26 26 27 27 28 28 29 29 30 31 31 31 31 31 31 31 30 30
15 15 15 15 15 15 16 16 16 15 15 15 15 15 16 16 16 16 16 16 17 17 17 17 17 17 17 17 16 16 16 16 15 15 14 15 15 16 17 18 19 19 18 13 11 10 10 7 5 5 7 11 13 14 13 13 14 14 15 16 16 17 17 18 18 18 18 18 18 19 19 19 19 19 20 20 21 23 24 24 25 25 25 25 26 26 26 27 27 27 28 29 29 30 31 31 31 31 31 31 31 30 30
15 15 15 15 15 15 15 16 16 16 16 16 15 16 16 16 17 17 17 17 17 17 17 17 17 17 17 16 16 16 16 17 16 15 14 15 16 17 17 18 19 19 20 21 20 17 12 6 4 5 6 7 10 12 13 13 13 14 14 15 16 17 18 19 20 20 20 20 20 19 19 19 19 19 19 20 20 21 22 23 24 25 25 26 26 26 27 27 27 28 28 29 30 31 31 32 32 32 32 31 31 31 30
15 15 15 15 15 15 15 15 16 16 16 16 16 16 16 17 17 17 17 17 17 17 17 17 17 17 17 16 16 16 16 17 16 15 14 14 14 15 15 16 17 18 19 19 19 19 18 14 10 6 5 6 7 8 10 13 14 15 15 16 17 17 18 19 20 21 21 21 21 21 20 20 20 20 20 20 20 21 21 22 23 24 25 26 26 27 27 27 27 28 29 29 30 31 32 32 32 32 32 31 31 31 30
15 15 14 14 14 15 15 15 15 16 16 16 16 16 17 17 17 18 18 18 17 17 17 17 17 17 17 17 17 17 17 17 16 16 15 14 14 14 14 15 15 16 16 17 17 17 17 18 18 15 11 7 6 8 8 10 12 15 17 17 17 18 19 20 20 21 21 21 21 21 22 22 21 21 21 21 21 21 21 22 23 24 24 25 26 27 27 27 27 28 28 29 31 31 32 32 32 32 32 31 31 31 31
Wind_Direction
125 118 113 106 99 94 92 93 93 90 87 83 80 76 73 70 67 65 64 64 64 64 63 61 59 58 57 56 54 52 49 46 42 39 37 35 38 43 49 54 60 71 91 118 126 112 79 46 35 39 41 42 44 45 45 44 42 41 42 47 51 52 49 46 46 48 52 53 54 54 54 54 54 54 53 53 52 51 51 50 51 51 51 51 51 51 51 51 51 51 51 51 52 52 51 50 50 50 50 51 51 50 50
133 126 120 113 105 100 100 101 100 97 92 86 82 79 76 73 69 67 65 65 64 63 62 61 60 59 57 57 56 54 51 47 42 37 33 29 30 37 47 56 63 73 90 115 128 117 86 55 37 34 39 42 43 44 45 42 40 40 40 46 49 49 45 42 43 46 48 50 51 52 52 51 51 52 52 51 50 49 48 47 47 48 49 50 50 50 50 49 49 49 49 50 50 50 50 49 48 47 49 49 50 50 49
138 133 127 120 112 108 107 109 109 105 99 93 89 84 80 76 72 68 65 63 63 62 61 59 59 58 57 56 54 52 50 48 43 37 32 26 23 26 37 50 59 69 83 106 124 117 89 66 43 30 34 38 40 41 42 39 37 37 39 45 48 47 43 40 39 41 44 46 47 49 49 48 48 49 49 50 49 48 47 46 45 45 45 46 47 47 48 47 47 48 47 48 48 48 48 48 47 46 47 48 48 48 48
144 138 133 127 121 116 117 120 120 116 110 104 98 91 87 82 75 71 67 63 62 60 59 58 57 57 57 54 51 48 45 43 41 36 32 25 17 14 22 35 48 60 72 92 113 112 87 62 39 28 29 31 33 33 34 33 32 33 37 42 46 45 42 38 36 37 39 40 41 43 45 44 44 44 45 46 46 46 45 44 44 43 43 43 44 44 45 45 46 46 46 47 46 46 46 46 45 44 44 46 46 47 47
148 145 140 135 130 128 129 132 132 128 123 117 112 107 99 90 82 76 69 65 61 59 57 55 53 52 51 51 49 45 40 36 33 32 28 20 10 6 10 20 32 45 57 72 91 100 87 58 34 23 28 26 24 24 24 25 27 29 35 39 43 43 37 34 34 35 36 36 36 37 38 40 40 40 40 40 42 43 42 41 40 40 40 41 41 41 41 41 42 43 44 44 45 45 45 45 44 43 42 43 44 45 45
155 151 148 144 141 140 143 144 144 140 135 133 128 122 113 102 92 80 73 68 62 57 53 48 43 38 34 35 40 38 34 28 23 18 14 4 357 356 2 8 15 26 40 51 64 78 87 69 52 46 44 29 20 16 16 17 18 24 32 35 38 39 36 32 30 31 32 32 32 32 32 33 33 34 35 35 36 37 37 37 36 36 36 36 38 38 39 38 38 39 40 41 42 42 43 42 42 42 41 40 41 42 43
161 160 157 154 152 153 154 155 155 153 149 147 144 141 131 123 107 79 62 55 49 46 34 19 9 5 3 5 7 13 15 12 7 0 352 343 341 345 352 358 3 9 20 32 41 52 69 90 107 115 98 78 34 14 10 5 5 13 26 31 33 34 33 27 24 25 26 26 26 26 26 26 25 26 28 29 30 31 31 31 31 31 31 31 32 32 34 35 35 35 36 37 37 38 39 39 39 39 38 39 39 40 41
169 168 166 163 162 160 162 163 163 164 162 162 161 164 164 165 172 328 338 331 326 325 326 328 329 333 337 338 339 336 334 334 336 336 332 328 329 335 343 350 354 358 3 12 22 31 42 74 99 108 121 124 55 5 356 351 351 357 10 21 29 33 29 22 17 16 16 17 18 19 19 19 18 17 16 19 21 23 25 25 24 24 23 24 25 25 25 26 29 31 32 32 32 32 33 34 35 34 35 35 36 37 38
177 177 175 173 174 176 172 170 171 172 174 175 179 186 199 209 240 272 287 296 300 303 308 312 316 319 322 325 322 319 315 314 312 311 311 316 321 327 333 341 347 351 353 356 4 13 23 43 66 80 107 124 11 328 316 330 332 335 342 342 4 36 29 17 10 9 6 5 5 7 9 10 10 9 8 6 7 8 10 14 14 14 12 14 15 16 17 17 18 21 24 26 26 28 27 27 27 29 30 30 31 33 34
184 182 180 179 180 181 182 181 180 182 186 189 193 201 212 225 245 263 277 286 291 296 299 305 310 314 318 319 319 318 317 313 308 304 304 307 313 319 326 333 341 345 345 345 348 354 1 14 32 39 1 268 258 251 240 269 288 301 316 284 252 229 24 10 2 358 355 352 348 349 351 354 357 0 0 356 353 350 352 354 356 355 353 353 355 359 1 2 3 5 9 14 17 20 21 20 18 20 21 24 26 28 29
191 189 187 190 190 190 190 192 191 190 192 202 207 213 224 235 249 261 270 277 282 286 291 296 303 309 314 317 318 319 320 320 316 310 306 306 310 316 322 330 337 341 340 338 337 339 343 350 355 346 309 278 259 245 233 225 234 256 275 261 242 232 359 357 349 345 344 343 337 332 330 331 335 339 343 343 340 336 333 331 330 330 328 325 326 330 336 342 343 346 348 354 359 3 8 9 9 8 9 13 17 21 23
197 200 201 203 205 204 199 196 196 198 201 209 216 222 232 240 250 256 259 267 273 278 282 286 292 299 306 311 314 316 319 321 320 317 313 311 312 315 321 329 336 340 338 333 330 330 332 334 330 317 302 288 275 261 246 232 228 234 245 247 239 237 287 331 334 331 331 332 329 322 316 314 315 315 316 322 322 320 318 315 311 310 307 305 304 305 306 311 315 317 321 327 334 340 347 352 355 355 352 356 1 8 12
206 210 213 209 209 211 206 204 205 207 211 217 223 229 235 241 248 254 258 262 267 270 273 276 281 288 295 302 306 310 313 315 318 318 317 316 316 318 322 329 335 340 338 331 327 327 330 328 320 311 303 296 288 280 269 256 244 239 239 242 239 240 258 301 317 319 321 321 321 317 311 305 300 297 297 302 303 302 304 303 301 297 295 293 292 291 291 291 291 291 294 298 304 312 321 326 333 336 335 333 335 344 353
217 220 220 214 215 218 217 211 211 215 220 226 229 233 238 241 246 250 254 258 262 265 266 268 274 278 284 290 297 302 305 308 310 312 314 317 317 318 322 327 333 337 335 328 327 329 327 322 315 310 306 302 296 290 283 275 265 256 251 250 247 246 251 281 299 306 309 311 312 311 306 301 295 292 291 291 290 290 291 291 290 289 288 286 284 284 284 283 281 279 278 279 283 289 296 301 309 314 317 314 313 316 323
223 223 221 218 218 220 222 222 222 226 230 234 236 239 243 245 246 248 251 255 260 261 262 264 267 271 275 281 288 294 299 301 302 304 307 311 314 316 319 323 327 330 328 326 328 326 314 310 308 307 307 304 299 295 289 283 278 273 268 266 262 257 255 267 284 294 300 302 303 302 300 297 294 292 292 291 287 285 284 282 282 282 282 282 281 281 279 278 277 276 275 273 272 273 278 284 289 295 298 299 297 296 299
225 222 222 223 225 228 231 234 235 237 240 241 241 244 247 248 248 249 251 253 256 259 261 262 263 266 271 276 283 290 295 294 293 295 298 303 306 308 312 316 321 323 323 324 324 313 292 292 297 302 305 305 302 297 292 288 284 281 279 276 274 270 264 264 272 283 290 294 295 296 296 293 290 289 290 290 289 284 281 279 278 278 278 279 279 279 277 274 273 274 274 274 272 270 269 271 275 280 284 287 287 285 284
223 221 223 228 233 237 242 245 246 247 248 248 247 247 249 250 250 249 251 252 254 256 259 260 261 263 268 272 278 285 290 283 278 281 287 295 298 301 304 309 313 317 319 318 309 292 281 281 288 295 301 303 300 296 293 290 288 286 283 281 280 278 274 270 268 273 281 285 288 290 290 289 286 284 284 284 284 283 281 280 279 278 276 277 276 275 273 271 270 271 272 273 273 271 269 267 268 270 273 276 278 277 277
215 215 224 233 241 248 252 255 256 256 255 254 254 253 255 254 252 250 251 253 253 254 257 259 260 262 265 270 273 276 278 269 263 265 273 284 292 296 299 302 307 310 312 302 287 277 277 279 285 292 297 297 295 292 289 288 288 287 285 282 281 279 277 274 271 270 273 276 280 282 283 283 283 281 278 277 277 278 278 278 278 278 277 275 274 272 270 269 269 269 269 270 271 271 270 268 267 266 267 269 270 272 272
215 223 235 247 256 260 262 262 262 261 261 261 260 260 261 260 257 254 252 253 253 254 255 258 260 262 265 267 267 265 264 260 257 255 258 266 277 287 294 296 299 299 294 281 273 272 273 276 280 285 289 289 288 286 284 286 288 288 285 282 280 279 278 276 274 271 270 271 273 275 277 278 278 277 276 274 273 272 272 273 274 275 274 273 272 270 269 267 267 267 266 267 268 268 269 269 267 266 265 265 266 267 268
224 236 248 258 264 267 267 266 265 265 266 266 265 265 267 266 263 260 258 257 258 258 257 259 259 260 261 261 260 258 258 257 255 253 252 250 256 269 281 283 282 279 272 269 268 268 268 270 273 277 279 281 281 281 281 284 287 288 286 283 280 278 277 275 274 272 269 269 269 270 271 272 273 274 273 272 270 269 268 268 268 269 270 269 269 268 267 266 265 265 265 264 264 265 266 267 266 266 266 265 264 264 265
235 236 240 252 260 263 263 262 262 263 263 266 267 265 264 264 262 261 261 262 261 261 261 260 258 256 257 258 257 255 255 256 255 254 253 252 250 254 262 266 264 263 263 266 267 268 270 273 276 277 278 278 278 278 278 281 285 287 287 285 281 278 276 274 273 271 269 267 267 267 268 269 270 270 271 270 269 268 266 265 264 264 265 265 265 265 265 264 264 263 263 263 263 263 262 263 264 264 265 264 263 262 263
239 236 233 237 243 246 247 247 248 250 251 260 263 262 259 261 261 260 256 254 255 257 259 256 254 254 255 256 255 254 254 255 256 256 256 254 254 255 255 257 259 261 264 268 271 273 275 277 279 280 279 278 277 278 277 278 280 283 286 286 283 280 276 274 273 271 269 267 266 265 265 266 267 268 268 268 267 267 266 264 263 262 262 262 262 262 262 262 262 262 261 261 260 260 260 260 261 261 262 262 261 261 261
240 239 238 237 238 239 238 239 240 241 243 250 253 254 255 260 263 262 255 251 252 256 257 254 253 254 255 255 254 253 253 255 256 257 257 256 257 257 257 258 261 264 268 272 274 275 276 277 278 278 277 277 277 278 278 278 279 281 283 285 284 281 278 276 273 272 270 267 265 264 264 264 265 265 266 266 266 266 265 265 263 262 261 260 260 260 260 260 260 260 259 258 258 258 258 258 258 258 259 259 259 259 260
244 244 244 246 247 248 246 245 244 244 246 248 248 249 253 258 262 263 262 259 259 260 260 258 258 258 258 257 256 254 254 256 258 259 259 259 259 260 260 260 262 266 270 272 273 274 274 275 276 277 276 276 277 278 279 280 280 280 282 283 283 282 279 277 275 273 271 269 266 265 264 263 263 264 264 264 264 265 264 264 263 262 261 260 259 259 259 259 258 258 257 257 256 256 256 256 256 256 257 256 257 258 258
249 249 250 252 254 255 254 252 249 249 251 253 254 255 257 260 262 265 266 265 264 263 262 261 261 262 262 262 259 257 256 258 259 259 259 259 260 261 262 262 262 264 267 269 270 271 271 272 273 275 275 276 277 277 278 279 279 280 281 282 283 282 280 278 276 275 273 270 268 266 264 263 263 262 263 264 264 264 264 263 263 262 261 261 260 259 259 258 257 257 256 256 256 255 255 255 255 255 254 254 255 255 255
251 251 253 254 256 257 256 254 251 252 253 255 256 257 259 261 264 266 268 267 265 263 262 261 262 263 263 263 262 260 260 260 261 261 260 259 260 261 262 263 263 264 264 265 267 269 269 270 271 272 273 274 275 276 277 278 278 279 280 281 282 282 280 278 276 275 274 272 270 267 265 264 263 262 262 262 263 263 263 263 262 262 261 261 260 259 259 258 258 257 256 257 256 255 254 254 255 254 253 253 253 254 255
252 253 254 255 257 258 257 255 252 252 253 255 256 257 258 261 264 267 268 268 266 263 262 262 263 264 264 264 264 263 262 262 262 262 262 261 261 261 262 262 263 264 264 265 266 268 269 271 272 272 273 273 273 274 275 277 278 279 280 281 281 281 280 279 277 275 274 273 271 270 267 265 264 263 262 262 262 262 262 262 262 262 261 260 260 259 259 258 258 257 257 257 256 256 255 254 254 254 253 253 254 254 254
255 254 254 256 258 259 258 256 253 252 254 256 257 257 257 260 264 267 268 268 266 264 263 263 264 265 265 265 264 264 263 263 263 263 263 262 261 260 260 262 262 263 264 265 265 266 267 270 271 272 272 271 271 272 273 275 277 278 279 280 281 281 281 279 277 275 274 273 272 271 269 267 265 264 263 262 261 261 261 261 261 261 261 260 260 259 259 258 258 257 257 256 256 256 255 254 254 254 254 254 254 254 253
258 257 256 256 258 259 259 257 255 254 255 257 258 258 257 259 263 266 268 268 267 265 264 264 265 265 265 264 263 263 263 263 264 264 264 263 261 260 260 261 262 263 264 264 264 265 266 265 265 266 267 267 267 268 269 271 273 275 277 279 280 281 281 280 278 276 273 272 271 271 269 268 266 265 264 262 261 260 260 260 260 260 260 260 259 259 259 258 258 257 257 256 256 255 255 254 254 254 254 254 254 254 253
261 261 260 260 261 262 261 259 257 257 258 259 259 259 258 259 262 265 266 267 266 265 265 266 266 266 266 265 264 263 263 263 264 264 264 263 262 261 260 261 262 263 264 264 265 265 264 264 263 263 264 264 264 264 266 268 270 272 274 276 278 279 280 279 278 276 274 272 270 269 269 268 267 266 265 263 262 260 260 259 259 259 259 259 259 258 258 258 257 257 257 256 256 255 255 255 254 253 253 253 253 253 253
263 264 264 265 266 266 264 261 260 261 261 260 259 259 259 260 262 264 266 266 266 265 265 266 267 269 269 267 266 265 264 264 264 264 264 264 262 261 261 261 262 264 264 265 265 265 264 263 262 262 262 262 263 264 265 267 268 269 270 272 274 276 278 278 278 277 275 272 270 269 267 267 266 266 265 263 262 261 260 259 258 258 258 258 257 257 257 257 257 257 256 256 255 255 255 254 254 253 253 253 253 253 253
264 265 266 267 268 269 267 264 262 262 263 262 261 260 260 261 262 264 266 266 265 264 265 267 268 270 270 270 269 267 266 265 264 265 266 264 263 262 262 263 264 264 265 266 265 264 264 263 262 261 261 261 262 264 265 266 268 269 269 270 272 274 275 276 277 276 275 273 271 269 267 265 265 264 264 263 262 261 260 259 258 257 257 257 256 256 256 256 256 256 256 255 255 255 254 254 254 253 253 253 253 253 253
265 265 265 266 268 269 269 266 264 264 264 264 262 262 262 262 263 264 265 265 264 264 265 267 269 270 271 271 271 269 268 267 267 267 268 266 265 264 264 264 265 265 266 266 265 264 263 263 262 261 261 261 261 262 263 265 266 268 268 269 270 271 273 274 275 275 275 274 272 270 268 266 264 263 263 262 261 260 260 259 258 257 257 256 256 256 255 255 255 255 255 255 255 255 254 254 253 253 252 252 252 252 252
267 268 268 268 270 270 270 268 267 267 267 266 264 264 264 264 264 265 265 266 266 266 267 268 270 271 272 272 272 271 269 268 268 269 269 268 267 266 267 266 266 266 266 265 265 264 264 263 262 261 261 261 261 261 262 263 264 265 265 266 267 268 270 272 273 274 274 274 273 271 270 267 265 264 262 262 261 260 259 258 258 257 256 256 255 255 255 255 254 254 254 254 254 254 254 253 253 252 252 251 251 251 251
268 270 271 271 271 271 270 270 270 270 270 269 268 267 267 268 267 267 266 267 268 268 269 270 271 272 272 272 271 270 269 268 268 268 269 269 269 268 268 267 266 266 266 265 264 264 264 262 262 261 261 261 261 261 261 262 262 263 264 265 265 266 268 269 271 272 273 273 273 272 271 269 267 265 264 262 261 260 259 258 257 257 256 256 255 255 254 254 254 254 253 253 253 253 253 253 252 252 251 251 251 251 251
268 270 271 272 271 271 270 269 270 270 270 270 270 271 271 270 269 267 266 266 267 269 270 271 272 272 272 271 270 269 268 268 268 268 267 268 268 268 267 265 264 264 264 263 263 262 262 261 260 260 260 260 261 261 261 261 261 262 262 263 264 265 266 267 268 270 271 272 273 273 272 270 269 267 265 264 262 261 260 258 257 257 256 255 255 254 254 253 253 253 253 253 253 252 252 252 252 251 251 251 250 250 250
267 269 270 270 270 270 269 269 269 269 270 270 271 272 272 271 268 266 264 264 266 268 271 272 271 270 271 269 268 267 267 267 267 267 266 266 266 266 264 264 263 263 262 262 261 260 260 259 259 259 259 260 260 260 260 260 260 260 261 262 263 264 265 266 268 269 271 272 273 273 272 272 270 269 267 265 264 262 261 260 258 257 256 255 255 254 253 253 253 252 252 252 252 252 251 251 251 251 251 250 250 250 249
267 268 269 269 269 269 268 269 269 270 270 270 270 271 270 269 266 264 262 263 265 267 269 270 269 269 268 266 265 265 264 264 265 265 266 266 266 265 264 264 263 262 261 260 260 259 259 259 258 258 258 259 259 259 259 259 259 259 260 261 262 263 264 266 267 269 270 271 272 273 273 272 271 270 269 267 266 264 263 261 259 258 256 255 254 254 253 252 252 252 251 251 251 251 251 250 250 250 250 250 250 249 249
265 267 268 269 269 268 268 268 269 269 269 269 269 269 268 267 264 262 260 261 264 265 266 267 267 267 265 263 263 263 262 262 262 263 264 265 265 264 263 264 263 262 261 260 260 259 259 259 259 258 258 258 258 258 259 259 258 259 259 260 261 262 263 264 266 267 268 270 271 272 272 272 272 272 271 269 268 267 265 263 261 259 258 256 255 253 253 252 251 251 251 250 250 250 250 250 250 250 250 250 249 249 249
263 264 265 266 266 266 266 267 267 268 267 267 267 267 266 264 261 260 259 260 262 263 262 263 265 266 264 262 262 262 261 260 261 262 263 264 264 264 264 263 262 261 261 261 261 260 260 259 259 259 258 258 258 259 258 258 258 258 258 258 259 260 261 262 264 265 266 268 269 270 271 272 272 272 272 271 270 269 267 266 264 262 259 257 256 254 253 252 251 251 250 250 250 249 249 249 249 249 249 249 249 249 249
260 260 261 262 263 263 264 265 265 266 266 265 265 265 263 260 258 258 259 261 262 262 261 260 261 263 264 263 263 263 263 261 261 262 264 264 264 265 265 264 263 262 261 261 261 261 261 260 260 259 259 259 259 259 259 259 259 259 259 259 258 259 259 261 262 263 264 265 267 268 270 270 271 272 272 272 271 270 268 267 265 263 261 259 257 255 253 252 251 251 250 250 249 249 249 249 249 249 249 249 249 249 249
258 259 259 260 261 262 262 263 264 264 264 264 264 263 261 258 256 256 258 261 263 263 262 259 258 260 264 265 264 264 264 263 262 263 264 265 266 266 266 265 264 263 262 261 261 261 260 260 260 260 260 260 260 259 259 259 260 259 260 259 260 259 260 260 260 261 262 263 264 266 267 268 269 270 270 270 269 269 267 266 264 263 261 259 258 256 255 253 252 251 250 250 249 249 249 249 249 248 248 248 248 248 248
258 258 259 260 261 262 263 264 264 264 264 264 264 263 261 259 257 258 259 261 264 265 264 261 259 260 263 265 266 265 265 265 265 264 265 267 267 267 266 266 265 264 263 262 261 261 260 261 260 261 261 261 261 260 260 260 260 260 260 260 260 260 260 259 259 260 260 261 262 263 264 266 267 267 267 267 267 266 265 264 263 261 260 259 258 256 255 254 253 252 251 250 250 250 249 249 249 249 249 249 248 248 248
259 259 260 261 262 264 264 265 266 266 265 265 264 263 262 261 260 261 261 262 264 265 266 264 261 260 261 264 266 267 267 267 268 268 268 269 269 269 269 268 267 266 266 264 262 261 261 261 261 261 261 261 261 261 261 261 260 260 260 260 260 260 260 259 259 260 260 261 262 263 263 264 265 266 266 266 266 265 264 263 262 261 259 259 257 256 255 255 254 253 252 252 251 251 250 250 250 249 249 249 249 249 249
260 261 261 262 263 264 265 266 267 266 266 265 264 263 262 262 262 262 263 264 264 264 266 266 263 261 259 261 264 267 267 268 270 272 272 272 272 272 272 271 269 269 268 266 264 263 262 261 261 261 261 260 260 260 261 261 261 261 260 260 259 259 259 259 260 260 260 261 262 262 263 264 265 266 266 267 266 266 265 264 263 262 261 260 259 258 257 256 255 255 254 253 253 252 252 251 251 250 250 250 250 249 249
260 260 261 261 262 263 265 266 266 265 264 263 263 262 261 261 261 261 263 263 263 263 263 266 266 263 260 260 262 265 267 269 271 272 273 273 273 274 273 272 271 269 268 267 265 264 262 262 261 260 259 259 259 259 260 261 261 260 260 258 258 258 258 259 259 260 260 261 261 262 263 264 265 266 267 267 268 268 268 267 266 265 264 263 262 260 259 258 257 256 255 254 254 253 253 252 252 251 251 251 250 250 250
258 259 260 260 261 262 264 264 264 263 262 262 260 260 259 258 258 259 260 262 262 263 263 264 266 266 264 263 262 262 265 267 268 271 273 273 273 273 273 273 271 269 266 266 265 263 262 260 259 258 257 257 257 257 257 258 259 258 257 257 257 257 257 258 259 259 259 260 261 262 263 265 266 266 266 267 267 268 269 270 270 269 269 267 266 265 263 261 259 257 256 255 254 254 254 253 253 253 252 252 251 251 251
258 258 258 260 261 262 263 263 263 262 261 260 259 258 258 257 257 257 258 260 263 264 265 265 265 266 267 266 264 262 263 264 265 267 271 275 275 273 272 272 271 269 266 264 263 262 260 258 257 256 255 254 254 254 254 255 255 255 254 255 256 256 256 257 258 258 259 259 260 262 264 265 266 266 266 266 266 267 269 270 271 271 271 271 270 269 268 266 264 261 259 257 255 254 254 254 253 253 253 252 252 252 252
258 258 258 260 260 262 262 262 261 260 259 259 258 258 258 258 258 258 260 261 263 265 266 265 264 265 267 267 266 264 262 262 263 265 268 273 278 279 277 274 272 271 269 264 261 260 258 256 254 254 253 251 251 251 251 251 251 251 252 253 254 254 255 255 256 257 258 258 260 261 263 264 265 265 265 266 266 267 267 268 270 271 272 272 272 272 271 270 269 267 264 262 259 256 254 254 253 253 253 253 253 252 252
258 258 259 259 260 261 262 262 261 260 259 258 258 259 260 260 260 260 261 262 262 264 266 265 262 261 262 264 265 264 262 261 262 264 267 267 272 281 287 286 283 281 278 273 266 259 256 253 251 251 250 249 248 247 247 247 247 248 249 249 251 252 253 254 254 255 257 258 260 262 262 263 264 265 265 266 266 266 267 268 268 270 271 272 273 273 273 272 272 271 270 268 265 262 258 255 254 253 253 253 253 253 253
257 258 258 259 260 261 262 262 262 261 260 260 261 261 262 262 262 262 262 262 261 261 262 264 264 261 258 259 262 263 261 260 258 259 264 264 266 273 287 296 296 293 289 285 274 262 253 249 248 247 247 245 243 243 243 244 244 244 245 246 248 250 252 252 253 254 256 259 261 263 262 262 262 263 264 265 266 266 267 267 268 269 270 271 272 272 273 274 274 274 274 273 271 269 266 262 258 255 253 253 253 253 253
256 257 258 259 260 261 262 262 262 262 262 263 264 264 263 263 262 262 261 261 260 259 258 260 263 264 260 258 260 262 259 257 253 250 253 263 269 273 279 289 295 293 290 296 290 276 262 249 246 245 242 240 239 239 239 239 240 241 242 243 245 248 251 252 252 253 255 258 261 262 263 263 262 262 263 264 265 266 267 267 268 268 269 269 270 271 272 273 274 275 275 275 274 273 271 269 265 261 257 255 253 253 253
257 257 258 259 260 261 262 263 262 262 262 263 264 265 265 264 263 262 261 261 260 258 255 254 257 262 264 262 261 262 260 255 252 249 248 255 268 277 277 276 274 281 302 311 308 296 283 263 247 237 233 232 234 236 236 236 237 238 239 241 243 246 250 252 252 252 253 254 257 260 263 264 264 263 263 264 265 265 266 266 267 267 268 269 269 270 270 272 273 275 276 275 275 274 272 271 270 267 264 260 257 254 253
260 259 259 260 261 262 263 263 263 263 262 262 263 264 265 265 264 264 263 261 260 258 256 253 252 255 261 263 263 263 263 258 252 247 244 245 251 264 277 263 263 282 295 298 298 296 289 285 290 273 220 222 227 232 234 234 235 236 237 238 241 244 248 249 250 251 251 252 255 258 261 263 265 265 265 265 265 265 265 265 266 266 267 267 268 269 270 271 272 273 274 274 274 274 273 272 271 270 268 265 262 259 256
264 263 262 261 261 262 263 263 264 264 263 262 263 264 264 264 264 264 263 262 261 260 259 257 253 251 253 259 263 265 266 263 257 249 244 242 238 235 247 274 288 289 287 273 264 270 290 328 333 327 309 247 223 226 230 232 234 236 236 237 238 241 243 245 247 248 249 252 254 256 258 260 263 264 265 266 266 266 265 265 265 265 265 266 266 267 268 270 271 271 272 272 273 273 273 273 272 271 269 268 266 263 260
267 266 264 263 263 263 263 264 265 265 265 264 263 263 263 264 264 264 264 264 263 262 261 260 258 253 249 253 259 265 267 267 261 253 247 245 237 231 234 244 264 286 287 275 270 277 304 333 333 310 293 283 260 238 236 234 234 235 237 237 238 240 242 243 245 246 247 250 252 253 255 256 258 260 262 264 266 267 267 266 265 264 264 264 265 265 267 268 269 269 269 270 271 272 273 273 273 272 270 269 267 265 263
269 268 267 266 265 264 264 265 265 266 265 264 263 263 263 264 265 265 264 263 263 262 260 259 259 257 254 252 256 262 265 266 264 258 251 248 242 235 232 233 236 243 257 281 300 302 303 316 317 293 286 286 279 269 265 256 247 242 240 240 240 240 242 244 245 246 247 249 250 251 252 253 253 255 257 259 262 264 266 266 266 265 264 264 263 264 265 266 267 267 268 269 270 271 273 273 273 272 271 270 268 266 264
270 270 269 268 266 265 265 264 265 265 265 264 263 263 264 264 264 264 263 263 262 262 260 259 258 258 257 254 254 257 260 262 263 262 257 254 248 242 237 235 237 241 246 255 267 280 294 302 289 278 296 294 284 275 270 267 261 255 248 245 243 242 243 244 246 247 248 248 249 250 251 251 251 251 253 254 257 259 262 264 265 266 265 264 263 263 264 265 266 266 266 267 269 271 272 273 273 272 271 270 268 266 264
273 271 270 268 267 266 264 264 264 264 264 264 263 263 263 263 263 263 264 264 263 262 261 259 257 257 258 255 253 253 256 257 260 262 263 261 255 248 241 238 239 242 246 251 257 262 269 276 280 284 294 295 290 283 274 267 265 263 259 254 250 246 245 245 245 246 248 248 249 250 250 251 251 251 251 251 253 254 257 260 262 264 264 264 263 263 264 264 265 265 266 267 269 270 272 272 272 271 270 269 268 266 264
280 276 273 270 267 266 264 264 263 263 263 263 263 263 262 262 263 264 264 264 264 263 261 259 258 257 257 255 252 251 253 256 258 259 260 262 261 254 245 240 239 240 243 247 251 254 255 255 260 272 281 284 293 296 288 277 272 270 268 264 259 253 248 246 245 245 247 248 248 249 249 250 250 250 250 250 251 252 253 255 257 259 261 262 262 263 263 264 264 265 266 267 268 270 272 272 272 271 270 268 267 265 264
289 284 278 275 271 268 266 265 264 263 263 263 263 262 262 262 263 263 264 265 265 264 262 260 259 258 256 253 251 249 251 255 258 257 255 256 261 261 256 248 244 242 242 244 246 248 250 250 252 255 260 270 283 287 286 284 281 278 272 268 264 259 254 249 246 244 245 246 247 247 248 249 249 249 249 250 250 251 252 253 254 255 257 259 260 261 262 263 263 264 264 266 268 270 272 272 272 271 270 268 267 265 263